When you browse on this site, cookies collect data to enhance your experience and personalize the content and advertising you see.
Visit our Privacy Policy to learn more. By continuing to use the site, you agree to this use of cookies and data.
  • în România
  • Lista ţărilor
  • Pe 7 zile
  • Temperatura apei
  • Hartă satelitară
  • Meteo pe hartă
  • Widget-uri
  • user-avatar
    Intrare

    Meteo pe oră la Huancavelica

    Astăzi, 23 Mai, Joi

    Timp Temperatura Precipitaţii Vânt Presiune Umiditate
    00:00 +2°C° 0 mm 2 m/s 463 mmHg 78%
    01:00 +2°C° 0 mm 2 m/s 462 mmHg 80%
    02:00 +1°C° 0 mm 2 m/s 462 mmHg 77%
    03:00 +1°C° 0 mm 2 m/s 462 mmHg 73%
    04:00 +1°C° 0 mm 2 m/s 462 mmHg 70%
    05:00 +2°C° 0 mm 2 m/s 462 mmHg 65%
    06:00 +2°C° 0 mm 2 m/s 463 mmHg 61%
    07:00 +4°C° 0 mm 2 m/s 464 mmHg 53%
    08:00 +6°C° 0 mm 2 m/s 466 mmHg 47%
    09:00 +8°C° 0 mm 2 m/s 467 mmHg 42%
    10:00 +11°C° 0 mm 1 m/s 468 mmHg 37%
    11:00 +12°C° 0 mm 2 m/s 469 mmHg 35%
    12:00 +13°C° 0 mm 2 m/s 469 mmHg 34%
    13:00 +14°C° 0 mm 2 m/s 469 mmHg 33%
    14:00 +13°C° 0.2 mm 2 m/s 469 mmHg 39%
    15:00 +11°C° 0.2 mm 3 m/s 468 mmHg 45%
    16:00 +10°C° 0.2 mm 3 m/s 467 mmHg 51%
    17:00 +8°C° 0.1 mm 2 m/s 466 mmHg 62%
    18:00 +7°C° 0.1 mm 1 m/s 464 mmHg 73%
    19:00 +4°C° 0.1 mm 1 m/s 463 mmHg 84%
    20:00 +4°C° 0 mm 1 m/s 463 mmHg 81%
    21:00 +3°C° 0 mm 1 m/s 463 mmHg 79%
    22:00 +2°C° 0 mm 2 m/s 463 mmHg 76%
    23:00 +1°C° 0 mm 2 m/s 462 mmHg 70%

    Mâine, 24 Mai, Vineri

    Timp Temperatura Precipitaţii Vânt Presiune Umiditate
    00:00 +2°C° 0 mm 1 m/s 462 mmHg 64%
    01:00 +1°C° 0 mm 1 m/s 461 mmHg 59%
    02:00 +1°C° 0 mm 1 m/s 461 mmHg 59%
    03:00 +1°C° 0 mm 1 m/s 460 mmHg 59%
    04:00 0°C° 0 mm 1 m/s 460 mmHg 59%
    05:00 +2°C° 0 mm 1 m/s 461 mmHg 58%
    06:00 +3°C° 0 mm 1 m/s 462 mmHg 57%
    07:00 +4°C° 0 mm 1 m/s 463 mmHg 57%
    08:00 +5°C° 0 mm 2 m/s 465 mmHg 53%
    09:00 +7°C° 0 mm 2 m/s 466 mmHg 49%
    10:00 +9°C° 0 mm 3 m/s 468 mmHg 45%
    11:00 +10°C° 0 mm 3 m/s 468 mmHg 42%
    12:00 +11°C° 0 mm 3 m/s 468 mmHg 39%
    13:00 +12°C° 0 mm 4 m/s 469 mmHg 36%
    14:00 +12°C° 0 mm 4 m/s 468 mmHg 41%
    15:00 +11°C° 0 mm 4 m/s 467 mmHg 46%
    16:00 +11°C° 0 mm 4 m/s 467 mmHg 51%
    17:00 +8°C° 0.2 mm 3 m/s 465 mmHg 65%
    18:00 +6°C° 0.2 mm 2 m/s 464 mmHg 79%
    19:00 +5°C° 0.2 mm 1 m/s 463 mmHg 93%
    20:00 +5°C° 0.1 mm 1 m/s 464 mmHg 94%
    21:00 +5°C° 0.1 mm 1 m/s 464 mmHg 95%
    22:00 +6°C° 0.1 mm 1 m/s 465 mmHg 96%
    23:00 +5°C° 0 mm 1 m/s 464 mmHg 93%

    Poimâine, 25 Mai, Sâmbătă

    Timp Temperatura Precipitaţii Vânt Presiune Umiditate
    00:00 +5°C° 0 mm 1 m/s 464 mmHg 91%
    01:00 +4°C° 0 mm 2 m/s 464 mmHg 88%
    02:00 +4°C° 0 mm 1 m/s 463 mmHg 90%
    03:00 +2°C° 0 mm 1 m/s 462 mmHg 92%
    04:00 +1°C° 0 mm 1 m/s 460 mmHg 94%
    05:00 +2°C° 0 mm 1 m/s 461 mmHg 90%
    06:00 +3°C° 0 mm 1 m/s 462 mmHg 86%
    07:00 +4°C° 0 mm 1 m/s 463 mmHg 82%
    08:00 +5°C° 0 mm 2 m/s 465 mmHg 72%
    09:00 +7°C° 0 mm 2 m/s 466 mmHg 62%
    10:00 +9°C° 0 mm 2 m/s 468 mmHg 51%
    11:00 +10°C° 0 mm 3 m/s 468 mmHg 48%
    12:00 +11°C° 0 mm 3 m/s 468 mmHg 45%
    13:00 +13°C° 0 mm 3 m/s 469 mmHg 42%
    14:00 +12°C° 0.2 mm 3 m/s 468 mmHg 48%
    15:00 +11°C° 0.2 mm 3 m/s 467 mmHg 53%
    16:00 +10°C° 0.2 mm 2 m/s 466 mmHg 58%
    17:00 +8°C° 0.3 mm 2 m/s 465 mmHg 69%
    18:00 +7°C° 0.3 mm 1 m/s 464 mmHg 79%
    19:00 +5°C° 0.3 mm 1 m/s 463 mmHg 89%
    20:00 +5°C° 0 mm 1 m/s 463 mmHg 87%
    21:00 +5°C° 0 mm 1 m/s 464 mmHg 85%
    22:00 +5°C° 0 mm 1 m/s 464 mmHg 83%
    23:00 +4°C° 0 mm 1 m/s 464 mmHg 81%

    26 Mai, Duminică

    Timp Temperatura Precipitaţii Vânt Presiune Umiditate
    00:00 +4°C° 0 mm 1 m/s 463 mmHg 80%
    01:00 +3°C° 0 mm 1 m/s 462 mmHg 79%
    02:00 +3°C° 0 mm 1 m/s 462 mmHg 77%
    03:00 +2°C° 0 mm 1 m/s 461 mmHg 76%
    04:00 +2°C° 0 mm 1 m/s 461 mmHg 74%
    05:00 +3°C° 0 mm 1 m/s 462 mmHg 69%
    06:00 +4°C° 0 mm 1 m/s 463 mmHg 64%
    07:00 +5°C° 0 mm 1 m/s 464 mmHg 59%
    08:00 +7°C° 0 mm 1 m/s 465 mmHg 55%
    09:00 +8°C° 0 mm 2 m/s 467 mmHg 52%
    10:00 +10°C° 0 mm 2 m/s 468 mmHg 48%
    11:00 +12°C° 0.1 mm 2 m/s 468 mmHg 47%
    12:00 +12°C° 0.1 mm 3 m/s 468 mmHg 46%
    13:00 +12°C° 0.1 mm 4 m/s 468 mmHg 46%
    14:00 +12°C° 0.7 mm 3 m/s 468 mmHg 48%
    15:00 +12°C° 0.7 mm 2 m/s 467 mmHg 51%
    16:00 +12°C° 0.7 mm 2 m/s 466 mmHg 53%
    17:00 +9°C° 0.3 mm 1 m/s 465 mmHg 64%
    18:00 +7°C° 0.3 mm 1 m/s 464 mmHg 75%
    19:00 +4°C° 0.3 mm 1 m/s 462 mmHg 86%
    20:00 +4°C° 0 mm 1 m/s 462 mmHg 85%
    21:00 +4°C° 0 mm 1 m/s 463 mmHg 84%
    22:00 +3°C° 0 mm 1 m/s 463 mmHg 83%
    23:00 +3°C° 0 mm 1 m/s 462 mmHg 80%

    27 Mai, Luni

    Timp Temperatura Precipitaţii Vânt Presiune Umiditate
    00:00 +3°C° 0 mm 1 m/s 462 mmHg 77%
    01:00 +3°C° 0 mm 1 m/s 462 mmHg 73%
    02:00 +2°C° 0 mm 1 m/s 462 mmHg 67%
    03:00 +1°C° 0 mm 2 m/s 461 mmHg 61%
    04:00 +1°C° 0 mm 2 m/s 461 mmHg 55%
    05:00 +2°C° 0 mm 2 m/s 462 mmHg 52%
    06:00 +3°C° 0 mm 2 m/s 463 mmHg 49%
    07:00 +3°C° 0 mm 2 m/s 463 mmHg 45%
    08:00 +5°C° 0 mm 2 m/s 465 mmHg 43%
    09:00 +8°C° 0 mm 2 m/s 467 mmHg 41%
    10:00 +10°C° 0 mm 2 m/s 468 mmHg 39%
    11:00 +12°C° 0 mm 2 m/s 468 mmHg 37%
    12:00 +12°C° 0 mm 3 m/s 469 mmHg 36%
    13:00 +13°C° 0 mm 3 m/s 469 mmHg 35%
    14:00 +13°C° 0 mm 3 m/s 468 mmHg 41%
    15:00 +12°C° 0 mm 4 m/s 467 mmHg 46%
    16:00 +11°C° 0 mm 4 m/s 467 mmHg 51%
    17:00 +9°C° 0.1 mm 3 m/s 466 mmHg 65%
    18:00 +7°C° 0.1 mm 2 m/s 464 mmHg 79%
    19:00 +5°C° 0.1 mm 1 m/s 463 mmHg 93%
    20:00 +5°C° 0 mm 1 m/s 464 mmHg 93%
    21:00 +6°C° 0 mm 1 m/s 464 mmHg 93%
    22:00 +6°C° 0 mm 1 m/s 465 mmHg 94%
    23:00 +5°C° 0 mm 1 m/s 464 mmHg 93%

    28 Mai, Marţi

    Timp Temperatura Precipitaţii Vânt Presiune Umiditate
    00:00 +4°C° 0 mm 1 m/s 463 mmHg 93%
    01:00 +3°C° 0 mm 1 m/s 462 mmHg 92%
    02:00 +3°C° 0 mm 1 m/s 461 mmHg 92%
    03:00 +2°C° 0 mm 1 m/s 461 mmHg 92%
    04:00 +2°C° 0 mm 1 m/s 460 mmHg 91%
    05:00 +3°C° 0 mm 1 m/s 461 mmHg 89%
    06:00 +4°C° 0 mm 1 m/s 462 mmHg 86%
    07:00 +4°C° 0 mm 0 m/s 463 mmHg 83%
    08:00 +7°C° 0 mm 1 m/s 465 mmHg 74%
    09:00 +8°C° 0 mm 2 m/s 466 mmHg 65%
    10:00 +10°C° 0 mm 3 m/s 468 mmHg 56%
    11:00 +10°C° 0.4 mm 3 m/s 468 mmHg 59%
    12:00 +10°C° 0.4 mm 4 m/s 467 mmHg 61%
    13:00 +11°C° 0.4 mm 4 m/s 467 mmHg 64%
    14:00 +10°C° 0.6 mm 4 m/s 466 mmHg 70%
    15:00 +9°C° 0.6 mm 3 m/s 465 mmHg 77%
    16:00 +7°C° 0.6 mm 2 m/s 464 mmHg 83%
    17:00 +6°C° 0.1 mm 2 m/s 464 mmHg 87%
    18:00 +6°C° 0.1 mm 1 m/s 463 mmHg 91%
    19:00 +5°C° 0.1 mm 1 m/s 463 mmHg 95%
    20:00 +4°C° 0 mm 1 m/s 463 mmHg 96%
    21:00 +4°C° 0 mm 1 m/s 463 mmHg 97%
    22:00 +3°C° 0 mm 1 m/s 462 mmHg 98%
    23:00 +3°C° 0 mm 1 m/s 462 mmHg 97%
    Arată mai mult